I4GOS-3 Weather Reports


Display with metric or nautical units.
time (UTC)temp
F
wind
direction
speed
MPH
gust
MPH
rain 1hr
in
rain 24hr
in
rain mn
in
humidity
%
barometer
mb
20260503195829 65 72 0.0 0.0 0.00 0.00 0.00 67 1016.8
20260503195329 66 72 0.0 0.0 0.00 0.00 0.00 66 1016.9
20260503194828 66 72 0.0 0.0 0.00 0.00 0.00 66 1016.8
20260503194328 66 72 0.0 0.0 0.00 0.00 0.00 66 1016.8
20260503193822 66 72 0.0 0.0 0.00 0.00 0.00 66 1016.7
20260503193321 66 72 0.0 0.0 0.00 0.00 0.00 65 1016.8
20260503192907 67 72 0.0 0.0 0.00 0.00 0.00 65 1016.8
20260503192821 67 72 0.0 0.0 0.00 0.00 0.00 65 1016.8
20260503192314 67 72 0.0 0.0 0.00 0.00 0.00 65 1016.8
20260503191808 67 72 0.0 0.0 0.00 0.00 0.00 65 1016.8
20260503191308 67 72 0.0 0.0 0.00 0.00 0.00 65 1016.8
20260503190808 68 71 0.0 0.0 0.00 0.00 0.00 66 1016.7
20260503190307 68 72 0.0 0.0 0.00 0.00 0.00 65 1016.7
20260503185807 68 72 0.0 0.0 0.00 0.00 0.00 64 1016.6
20260503185307 68 73 0.0 0.0 0.00 0.00 0.00 64 1016.6
20260503184806 68 72 0.0 0.0 0.00 0.00 0.00 64 1016.7
20260503184305 69 72 0.0 0.0 0.00 0.00 0.00 64 1016.6
20260503183805 69 72 0.0 0.0 0.00 0.00 0.00 64 1016.5
20260503183332 69 72 0.0 0.0 0.00 0.00 0.00 63 1016.5
20260503183255 69 72 0.0 0.0 0.00 0.00 0.00 63 1016.5
20260503182802 69 72 0.0 0.0 0.00 0.00 0.00 63 1016.4
20260503182253 69 72 0.0 0.0 0.00 0.00 0.00 63 1016.5
20260503181753 69 72 0.0 0.0 0.00 0.00 0.00 62 1016.4
20260503181253 69 72 0.0 0.0 0.00 0.00 0.00 62 1016.3
20260503180835 70 72 0.0 0.0 0.00 0.00 0.00 61 1016.3
20260503180752 70 72 0.0 0.0 0.00 0.00 0.00 61 1016.3
20260503180331 70 72 0.0 0.0 0.00 0.00 0.00 61 1016.3
20260503180250 70 72 0.0 0.0 0.00 0.00 0.00 61 1016.3
20260503175750 70 81 0.0 0.0 0.00 0.00 0.00 60 1016.3
20260503174749 70 71 4.0 0.0 0.00 0.00 0.00 58 1016.3
20260503174249 70 81 0.0 0.0 0.00 0.00 0.00 58 1016.3
20260503173249 70 58 3.0 0.0 0.00 0.00 0.00 57 1016.4
20260503172748 71 54 2.0 0.0 0.00 0.00 0.00 56 1016.4
20260503172245 70 81 0.0 0.0 0.00 0.00 0.00 56 1016.3
20260503171819 70 80 3.0 0.0 0.00 0.00 0.00 55 1016.4
20260503171744 70 80 3.0 0.0 0.00 0.00 0.00 55 1016.4
20260503171241 71 67 2.0 0.0 0.00 0.00 0.00 55 1016.4
20260503170741 71 52 0.0 0.0 0.00 0.00 0.00 54 1016.5
20260503170240 71 98 3.0 0.0 0.00 0.00 0.00 54 1016.5
20260503150703 70 65 7.0 0.0 0.00 0.00 0.00 59 1017.1
20260503150203 70 43 8.0 0.0 0.00 0.00 0.00 60 1017.1
20260503140230 71 59 8.0 0.0 0.00 0.00 0.00 62 1017.6
20260503140152 71 59 8.0 0.0 0.00 0.00 0.00 62 1017.6
20260503131137 71 60 11.0 0.0 0.00 0.00 0.00 57 1017.9
20260503130637 71 58 5.0 0.0 0.00 0.00 0.00 55 1018.0
20260503130136 71 60 2.0 0.0 0.00 0.00 0.00 54 1018.1
20260503120134 71 26 0.0 0.0 0.00 0.00 0.00 57 1018.5
20260503110819 70 38 7.0 0.0 0.00 0.00 0.00 52 1018.7
20260503110631 70 38 7.0 0.0 0.00 0.00 0.00 52 1018.7
20260503110131 70 26 5.0 0.0 0.00 0.00 0.00 53 1018.7
20260503100116 69 359 0.0 0.0 0.00 0.00 0.00 49 1019.2
20260503090110 69 343 0.0 0.0 0.00 0.00 0.00 45 1019.7
20260503081608 68 8 0.0 0.0 0.00 0.00 0.00 48 1019.7
20260503081107 68 328 0.0 0.0 0.00 0.00 0.00 48 1019.7
20260503080607 68 359 0.0 0.0 0.00 0.00 0.00 48 1019.8
20260503080228 68 21 0.0 0.0 0.00 0.00 0.00 49 1019.8
20260503080107 68 21 0.0 0.0 0.00 0.00 0.00 49 1019.8
20260503072605 66 226 0.0 0.0 0.00 0.00 0.00 52 1019.8
20260503072202 65 226 0.0 0.0 0.00 0.00 0.00 53 1019.9
20260503072105 65 226 0.0 0.0 0.00 0.00 0.00 53 1019.9
20260503071649 65 224 0.0 0.0 0.00 0.00 0.00 54 1019.9
20260503071602 65 224 0.0 0.0 0.00 0.00 0.00 54 1019.9
20260503071138 65 226 0.0 0.0 0.00 0.00 0.00 55 1019.9
20260503071102 65 226 0.0 0.0 0.00 0.00 0.00 55 1019.9
20260503070602 64 230 0.0 0.0 0.00 0.00 0.00 57 1020.0
20260503070158 63 228 0.0 0.0 0.00 0.00 0.00 59 1019.9
20260503055043 55 173 0.0 0.0 0.00 0.00 0.00 66 1019.7
20260503054540 55 173 0.0 0.0 0.00 0.00 0.00 67 1019.7
20260503054040 54 173 0.0 0.0 0.00 0.00 0.00 68 1019.7
20260503053540 53 173 0.0 0.0 0.00 0.00 0.00 68 1019.5
20260503053039 53 173 0.0 0.0 0.00 0.00 0.00 70 1019.6
20260503052539 52 173 0.0 0.0 0.00 0.00 0.00 70 1019.6
20260503052039 52 173 0.0 0.0 0.00 0.00 0.00 71 1019.6
20260503051539 52 173 0.0 0.0 0.00 0.00 0.00 71 1019.6
20260503051038 51 173 0.0 0.0 0.00 0.00 0.00 72 1019.6
20260503050538 51 173 0.0 0.0 0.00 0.00 0.00 72 1019.6
20260503050038 51 173 0.0 0.0 0.00 0.00 0.00 72 1019.5
20260503045036 51 173 0.0 0.0 0.00 0.00 0.00 72 1019.5
20260503044536 51 173 0.0 0.0 0.00 0.00 0.00 72 1019.5
20260503044035 50 173 0.0 0.0 0.00 0.00 0.00 72 1019.5
20260503043535 50 173 0.0 0.0 0.00 0.00 0.00 72 1019.4
20260503043035 50 173 0.0 0.0 0.00 0.00 0.00 72 1019.4
20260503042535 50 173 0.0 0.0 0.00 0.00 0.00 72 1019.5
20260503042036 50 173 0.0 0.0 0.00 0.00 0.00 72 1019.5
20260503041534 50 173 0.0 0.0 0.00 0.00 0.00 71 1019.4
20260503041034 50 173 0.0 0.0 0.00 0.00 0.00 71 1019.3
20260503040534 50 173 0.0 0.0 0.00 0.00 0.00 71 1019.4
20260503035533 50 173 0.0 0.0 0.00 0.00 0.00 72 1019.4
20260503035033 50 173 0.0 0.0 0.00 0.00 0.00 72 1019.4
20260503034533 50 173 0.0 0.0 0.00 0.00 0.00 72 1019.4
20260503034033 50 173 0.0 0.0 0.00 0.00 0.00 72 1019.4
20260503033532 50 173 0.0 0.0 0.00 0.00 0.00 72 1019.4
20260503033032 50 173 0.0 0.0 0.00 0.00 0.00 72 1019.4
20260503032532 50 173 0.0 0.0 0.00 0.00 0.00 71 1019.4
20260503032032 50 173 0.0 0.0 0.00 0.00 0.00 71 1019.4
20260503031531 50 173 0.0 0.0 0.00 0.00 0.00 71 1019.4
20260503031031 50 173 0.0 0.0 0.00 0.00 0.00 71 1019.5
20260503030531 50 173 0.0 0.0 0.00 0.00 0.00 71 1019.5
20260503030031 51 173 0.0 0.0 0.00 0.00 0.00 71 1019.5
20260503025530 50 173 0.0 0.0 0.00 0.00 0.00 71 1019.5
20260503025030 51 173 0.0 0.0 0.00 0.00 0.00 71 1019.5
20260503024530 51 173 0.0 0.0 0.00 0.00 0.00 71 1019.5
20260503024030 51 173 0.0 0.0 0.00 0.00 0.00 71 1019.6
20260503023530 51 173 0.0 0.0 0.00 0.00 0.00 70 1019.6
20260503023029 51 173 0.0 0.0 0.00 0.00 0.00 71 1019.6
20260503022529 51 173 0.0 0.0 0.00 0.00 0.00 70 1019.6
20260503022029 51 173 0.0 0.0 0.00 0.00 0.00 70 1019.6
20260503021529 51 173 0.0 0.0 0.00 0.00 0.00 70 1019.6
20260503021028 52 173 0.0 0.0 0.00 0.00 0.00 70 1019.6
20260503020528 51 173 0.0 0.0 0.00 0.00 0.00 70 1019.6
20260503020028 52 173 0.0 0.0 0.00 0.00 0.00 70 1019.6
20260503015528 52 173 0.0 0.0 0.00 0.00 0.00 70 1019.7
20260503015027 52 173 0.0 0.0 0.00 0.00 0.00 70 1019.7
20260503014527 52 173 0.0 0.0 0.00 0.00 0.00 69 1019.7
20260503014027 52 173 0.0 0.0 0.00 0.00 0.00 69 1019.8
20260503013527 52 173 0.0 0.0 0.00 0.00 0.00 69 1019.8
20260503013027 52 173 0.0 0.0 0.00 0.00 0.00 69 1019.8
20260503012526 52 173 0.0 0.0 0.00 0.00 0.00 69 1019.8
20260503011526 52 173 0.0 0.0 0.00 0.00 0.00 69 1019.9
20260503011026 52 173 0.0 0.0 0.00 0.00 0.00 69 1019.8
20260503010525 52 173 0.0 0.0 0.00 0.00 0.00 69 1019.9
20260503010025 52 173 0.0 0.0 0.00 0.00 0.00 69 1019.9
20260503005525 52 173 0.0 0.0 0.00 0.00 0.00 68 1019.9
20260503005025 52 173 0.0 0.0 0.00 0.00 0.00 68 1019.9
20260503004524 52 173 0.0 0.0 0.00 0.00 0.00 68 1020.0
20260503004024 53 173 0.0 0.0 0.00 0.00 0.00 68 1020.1
20260503003524 53 173 0.0 0.0 0.00 0.00 0.00 68 1020.1
20260503003024 53 173 0.0 0.0 0.00 0.00 0.00 68 1020.2
20260503002523 53 173 0.0 0.0 0.00 0.00 0.00 68 1020.2
20260503002023 53 173 0.0 0.0 0.00 0.00 0.00 68 1020.3
20260503001523 53 173 0.0 0.0 0.00 0.00 0.00 68 1020.3
20260503001023 53 173 0.0 0.0 0.00 0.00 0.00 68 1020.4
20260503000523 54 173 0.0 0.0 0.00 0.00 0.00 68 1020.4
20260503000022 54 173 0.0 0.0 0.00 0.00 0.00 68 1020.4
20260502235523 54 173 0.0 0.0 0.00 0.00 0.00 68 1020.5
20260502235022 54 173 0.0 0.0 0.00 0.00 0.00 67 1020.5
20260502234522 54 173 0.0 0.0 0.00 0.00 0.00 67 1020.5
20260502234021 54 173 0.0 0.0 0.00 0.00 0.00 66 1020.5
20260502233521 54 217 0.0 0.0 0.00 0.00 0.00 66 1020.6
20260502233021 54 217 0.0 0.0 0.00 0.00 0.00 66 1020.7
20260502232521 54 217 0.0 0.0 0.00 0.00 0.00 66 1020.8
20260502232021 54 217 0.0 0.0 0.00 0.00 0.00 66 1020.8
20260502231520 55 218 0.0 0.0 0.00 0.00 0.00 66 1020.9
20260502231020 55 206 0.0 0.0 0.00 0.00 0.00 66 1020.9
20260502230520 54 206 0.0 0.0 0.00 0.00 0.00 66 1020.9
20260502230020 54 206 0.0 0.0 0.00 0.00 0.00 66 1021.0
20260502225519 54 206 0.0 0.0 0.00 0.00 0.00 65 1021.0
20260502225019 54 206 0.0 0.0 0.00 0.00 0.00 65 1021.0
20260502224519 54 206 0.0 0.0 0.00 0.00 0.00 65 1021.1
20260502223518 55 206 0.0 0.0 0.00 0.00 0.00 65 1021.3
20260502223018 55 215 0.0 0.0 0.00 0.00 0.00 64 1021.3
20260502222518 55 216 0.0 0.0 0.00 0.00 0.00 64 1021.3
20260502222018 55 149 0.0 0.0 0.00 0.00 0.00 63 1021.2
20260502221518 56 149 0.0 0.0 0.00 0.00 0.00 63 1021.2
20260502221017 56 149 0.0 0.0 0.00 0.00 0.00 62 1021.2
20260502220517 56 149 0.0 0.0 0.00 0.00 0.00 61 1021.2
20260502220017 56 149 0.0 0.0 0.00 0.00 0.00 61 1021.2
20260502215517 56 149 0.0 0.0 0.00 0.00 0.00 61 1021.2
20260502215016 56 149 0.0 0.0 0.00 0.00 0.00 62 1021.3
20260502214516 56 149 0.0 0.0 0.00 0.00 0.00 62 1021.3
20260502214016 57 149 0.0 0.0 0.00 0.00 0.00 61 1021.2
20260502213513 57 149 0.0 0.0 0.00 0.00 0.00 61 1021.3
20260502213012 57 149 0.0 0.0 0.00 0.00 0.00 61 1021.3
20260502212512 57 149 0.0 0.0 0.00 0.00 0.00 60 1021.4
20260502212012 58 149 0.0 0.0 0.00 0.00 0.00 59 1021.4
20260502211511 58 149 0.0 0.0 0.00 0.00 0.00 59 1021.3
20260502211011 58 149 0.0 0.0 0.00 0.00 0.00 58 1021.3
20260502210511 58 149 0.0 0.0 0.00 0.00 0.00 58 1021.3
20260502210010 58 149 0.0 0.0 0.00 0.00 0.00 58 1021.4
20260502205510 58 149 0.0 0.0 0.00 0.00 0.00 57 1021.4
20260502205010 59 149 0.0 0.0 0.00 0.00 0.00 57 1021.4
20260502204510 59 149 0.0 0.0 0.00 0.00 0.00 57 1021.5
20260502204010 59 149 0.0 0.0 0.00 0.00 0.00 56 1021.5
20260502203509 59 149 0.0 0.0 0.00 0.00 0.00 55 1021.5
20260502203009 60 149 0.0 0.0 0.00 0.00 0.00 54 1021.5
20260502202509 60 149 0.0 0.0 0.00 0.00 0.00 54 1021.5
20260502202009 61 147 0.0 0.0 0.00 0.00 0.00 54 1021.5
20260502201508 61 149 0.0 0.0 0.00 0.00 0.00 54 1021.6
20260502201008 62 87 0.0 0.0 0.00 0.00 0.00 53 1021.6
20260502200508 62 87 0.0 0.0 0.00 0.00 0.00 52 1021.5